Погода в Мугалжаре

Погода в Мугалжаре : погода сейчас, прогноз погоды и архив. Всё, что Вы хотите узнать о погоде в Мугалжаре!

Хотите узнать прогноз погоды в Мугалжаре? Тогда Вам сюда: Погода в Мугалжаре

Поиск расширенной информации на нашем сайте:

Другие новости

Новости СМИ2

Главная страница сайта

Новости сайта

02.10.2013

Напоминаем, что на нашем новом сайте вы можете получить высокодетализированные прогнозы погоды по пунктам России, СНГ и мира (включающие важные для авиации метеовеличины, такие как направление и скорость ветра, видимость, явления погоды, количество и форма облачности, нижняя и верхняя граница облачности), а также ознакомиться с разнообразными материалами по авиационной метеорологии и подборкой полезных ссылок на эту тему.

Сайт Метеоцентр.Азия посвящён разработке технологий оптимизации авиаметеорологического обслуживания, включая проектирование и перспективное создание нескольких автоматизированных авиаметеорологических систем:
- система выпуска высокодетальных прогностических карт явлений погоды для нижнего воздушного пространства по России и ближнему зарубежью;
- система верификации прогнозов TAF (выпускаемых синоптиками официальных АМСГ РФ и ближнего зарубежья) и AUTOTAF (выпускаемых сайтом Метеоцентр.Азия) - выявление ошибок, онлайн-сопоставление с фактической погодой METAR, автоматическое внесение коррективов в прогнозы при резком отклонении фактической погоды от прогноза, подсчёт оправдываемости прогнозов по элементам и в целом;
- система обработки, анализа и отображения авиаметеорологической информации для применения провайдерами метеорологической информации.

Рекомендуем: отзывы кровмаркет

Погода в Мугалжаре - сегодня

Время (UTC), дата Ветер
(°,м/с) 
Видим.   Явления Облачность Т
(°С)
Тd
(°С)
f(%) Тe
(°С)
Pmin
(гПа)
dP
(гПа)
Po
(мм)
O2
(г/м3)
Тmin Tmax R s Состояние
почвы
03 25.06.17 230 (ЮЗ) 20000 м    9/9 600 м кучево-дожд. 
[Cb cap]
+19.4 +7.3 45 +20  1007.8  -0.4  722  270           
06 25.06.17 230 (ЮЗ) 20000 м    9/9 600 м кучево-дожд. 
[Cb cap]
+24 +6.1 32 +24  1006.6  -0.4  721  266  +17.3         
09 25.06.17 250 (З) 20000 м  {ливн. осадки}  10/10 600 м кучево-дожд. 
[Cb cap]
+22.6 +14.9 62 +32  1006.9  0.2  722  265           
12 25.06.17 250 (З) 20000 м    9/9 1000 м 
[Cu med, cong]
+23 +13.7 56 +30  1007  0.1  722  265           
15 25.06.17 270 (З) 20000 м  {ливн. осадки}  9/9 600 м кучево-дожд. 
[Cb cap]
+21.2 +15.1 68 +31  1007.2  -0.2  721  267    +24.4       
18 25.06.17 тихо ()   20000 м  {ливн. осадки}  9/9 600 м кучево-дожд. 
[Cb cap]
+18 +12.6 71 +24  1009.4  1.7  723  271    +2.4     
21 25.06.17 230 (ЮЗ) 20000 м    9/9 600 м кучево-дожд. 
[Cb cap]
+16.3 +11.3 72 +21  1011.3  1.5  724  273           
00 26.06.17 тихо ()   20000 м    10/10 600 м кучево-дожд. 
[Cb cap]
+14.5 +9.9 74 +16  1012.7  1.2  725  275           
03 26.06.17 тихо ()   20000 м    9/0 средняя 
[Ac trans]
+16.6 +10.6 68 +19  1013.5  725  274           
06 26.06.17 тихо ()   20000 м    9/9 600 м кучево-дожд. 
[Cb cap]
+20.2 +9.8 51 +22  1013.5  0.5  726  271  +14         
09 26.06.17 290 (З) 20000 м    9/9 600 м кучево-дожд. 
[Cb cap]
+21.4 +8 42 +21  1013.6  0.2  726  270           
12 26.06.17 290 (З) 20000 м    9/9 600 м кучево-дожд. 
[Cb cap]
+22.6 +6.1 34 +23  1013.4  0.2  726  269           
15 26.06.17 тихо ()   20000 м    ясно 
+23 +8.4 39 +23  1014  0.6  727  269    +23.4       
18 26.06.17 тихо ()   20000 м    9/0 верхняя 
[Ci ing]
+16.8 +6.2 50 +17  1016.5  1.4  728  275    +23.4       
21 26.06.17 тихо ()   20000 м    9/0 верхняя 
[Ci ing]
+15.2 +7.3 59 +15  1017.7  0.8  728  277           
00 27.06.17 тихо ()   20000 м    ясно 
+12.6 +6.1 65 +13  1018.4  0.4  729  280           
03 27.06.17 230 (ЮЗ) 20000 м    ясно 
+16.8 +7.1 53 +18  1018.9  1.1  729  276           
06 27.06.17 270 (З) 20000 м    ясно 
+22.8 +10.3 45 +25  1018.5  0.5  730  270  +12.4         
09 27.06.17 тихо ()   20000 м    ясно 
+26.6 +10.6 37 +29  1017  -0.8  729  266           
12 27.06.17 тихо ()   20000 м    ясно 
+28.8 +8.1 27 +29  1015.6  -1.1  728  264           
15 27.06.17 тихо ()   20000 м    ясно 
+27.8 +8.1 29 +28  1015.1  -0.5  728  265    +29.1       
18 27.06.17 тихо ()   20000 м    ясно 
+24.2 +8.1 36 +24  1016.4  0.5  728  268    +29.1       
21 27.06.17 тихо ()   20000 м    ясно 
+21.8 +8.9 44 +22  1016.7  728  270           
00 28.06.17 тихо ()   20000 м    ясно 
+20 +9.3 50 +21  1017.1  0.1  728  272           
03 28.06.17 тихо ()   20000 м    ясно 
+23.8 +10.6 43 +26  1016.9  0.4  751  277           
Время (UTC), дата Ветер
(°,м/с) 
Видим.   Явления Облачность Т
(°С)
Тd
(°С)
f(%) Тe
(°С)
Pmin
(гПа)
dP
(гПа)
Po
(мм)
O2
(г/м3)
Тmin Tmax R s Состояние
почвы

Для получения пояснительной информации подведите курсор к названию столбца.

ПОГОДА в Мугалжаре - архив

Всё, что Вы хотите узнать о погоде в Мугалжаре - удобно и подробно!

Выберите нужную дату (начиная с 1 января 2015* года) и нажмите кнопку "Найти".
Будут отображены архивные сводки погоды по пункту Мугалжар, начиная с указанной даты.


Отображать данные в формате CSV (для использования в таблицах Excel)


Внимание! Наш архив погоды предназначен исключительно для личного некоммерческого использования в познавательных целях. Если Вам необходимы официальные справки о состоянии погоды (для производственных, юридических, коммерческих и т.п. целей), обращайтесь в органы Росгидромета.

*Примечание: данная дата относится к архиву по метеостанциям СССР (Россия, СНГ, Балтия).
Архив по метеостанциям Зарубежной Европы и Азии (кроме Китая) хранится 10 дней, по другим регионам земного шара (Китай, Африка, Америка, Австралия, Океания) - 1 день.

Мугалжар - район местоположения метеостанции


Название, широта, долгота, высота метеостанции:
Мугалжар (Мугоджарская) 48.6°ш. 58.5°д. 398 м над ур. моря [Казахстан]

Дополнительная информация

В oтличие oт бoльшинства пoгoдных сайтoв мы публикуем пoдрoбную метеoинфoрмацию в детальнoм прoфессиoнальнoм фoрмате.

Характеристики температуры и влажнoсти вoздуха измеряются на высoте 2 м в тени вдали oт зданий и деревьев.
Скoрoсть ветра измеряется на высoте 10 м (на урoвне рoста челoвека скoрoсть ветра ниже в 1.5-2 раза). Если метеoстанция нахoдится в гoрoде или в лесу, тo скoрoсть ветра занижена на 2-4 м/с пo сравнению с oткрытым местoм. Скoрoсть ветра над акватoриями крупных рек и oзёр, а также на вершинах хoлмoв на 2-5 м/с выше, чем в oбычных услoвиях.
Атмoсфернoе давление в разных тoчках местнoсти мoжет значительнo oтличаться oт давления на метеoстанции, в зависимoсти oт услoвий рельефа (при пoдъёме на 10 м давление пoнижается примернo на 1 мм рт.ст.).